Regional Weather Roundup
Issued by NWS Upton, NY

Current Version | Previous Version | Text Only | Print | Product List | Glossary On
Versions: 1 2 3 4 5 6 7 8 9 10 11 12 13 14 15 16 17 18 19 20 21 22 23 24 25 26 27 28 29 30 31 32 33 34 35 36 37 38 39 40 41 42 43 44 45 46 47 48 49 50
000
ASUS41 KOKX 291205
RWROKX

REGIONAL WEATHER ROUNDUP
NATIONAL WEATHER SERVICE NEW YORK NY
800 AM EDT SUN MAY 29 2016

NOTE: "FAIR" INDICATES FEW OR NO CLOUDS BELOW 12,000 FEET WITH NO
SIGNIFICANT WEATHER AND/OR OBSTRUCTIONS TO VISIBILITY.

NYZ071-072-176-178-NJZ106-104-291300-
NEW YORK CITY METRO AREA


CITY           SKY/WX    TMP DP  RH WIND       PRES   REMARKS
CENTRAL PARK   SUNNY     74  57  55 VRB6      30.17S
LAGUARDIA APRT MOSUNNY   77  62  59 SW7       30.14S
KENNEDY INTL   MOSUNNY   70  55  59 S7        30.16S
NEWARK/LIBERTY PTSUNNY   75  58  55 SW8       30.14S
BRNX BOT. GARD   N/A     75  57  53 SW5       30.16R
TETERBORO      SUNNY     75  56  51 S6        30.13S
$$

NYZ177-179-078>081-291300-
LONG ISLAND NEW YORK

CITY           SKY/WX    TMP DP  RH WIND       PRES   REMARKS
FARMINGDALE    MOSUNNY   71  56  58 SW7       30.16R
ISLIP          PTSUNNY   71  57  61 SW10      30.15S
SHIRLEY        SUNNY     71  58  63 SW9       30.17R
RIVERHEAD      NOT AVBL
WESTHAMPTON    SUNNY     68  58  70 SW9       30.17R
EAST HAMPTON   FAIR      64  58  80 SW3       30.15R
MONTAUK POINT    N/A     67  58  72 VRB5      30.17R
$$

NYZ052-065-067-291300-
HUDSON VALLEY

CITY           SKY/WX    TMP DP  RH WIND       PRES   REMARKS
WHITE PLAINS   SUNNY     73  60  63 CALM      30.14S
NEWBURGH       MOSUNNY   73  68  83 SW7       30.14S
MONTGOMERY     CLOUDY    74  68  81 SW8       30.13S
POUGHKEEPSIE   SUNNY     77  66  68 SW6       30.11R
ALBANY         CLOUDY    74  67  78 S9        30.11S
$$

NJZ001-105-106-008-010-013-015-019>022-104-291300-
NEW JERSEY

CITY           SKY/WX    TMP DP  RH WIND       PRES   REMARKS
NEWARK/LIBERTY PTSUNNY   75  58  55 SW8       30.14S
TETERBORO      SUNNY     75  56  51 S6        30.13S
CALDWELL       MOSUNNY   73  60  63 SW3       30.15S
MORRISTOWN     MOSUNNY   73  63  68 SW5       30.15S
SOMERVILLE     SUNNY     71  62  73 S3        30.13F
SUSSEX         SUNNY     69  66  90 SW5       30.15R
ANDOVER          N/A     71  65  81 SW5       30.15S
TRENTON        SUNNY     70  59  68 S5        30.16S
MILLVILLE      SUNNY     70  65  84 CALM      30.18R
ATLANTIC CITY  SUNNY     71  66  84 SW6       30.17S
WRIGHTSTOWN    NOT AVBL
TOMS RIVER     SUNNY    N/A N/A N/A W7        30.17S
BELMAR         SUNNY     71  62  73 SW8       30.18S
$$

PAZ047>061-062-071-291300-
EASTERN PENNSYLVANIA

CITY           SKY/WX    TMP DP  RH WIND       PRES   REMARKS
PHILADELPHIA   PTSUNNY   69  60  73 S3        30.17S
ALLENTOWN      SUNNY     73  59  61 SW5       30.15S
SCRANTON       SUNNY     74  65  73 CALM      30.15R
$$

CTZ002-004>006-009-010-012-RIZ004-006-007-MAZ004-011-015-291300-
SOUTHERN NEW ENGLAND
 IN CT

CITY           SKY/WX    TMP DP  RH WIND       PRES   REMARKS
BRADLEY INTL   MOSUNNY   73  62  68 NE6       30.14R
HARTFORD       SUNNY     76  63  64 S3        30.13R
DANBURY        SUNNY     74  64  71 W6        30.15R
WTRBRY/OXFORD  PTSUNNY   73  63  68 SW5       30.16S
BRIDGEPORT     SUNNY     71  56  58 SW7       30.14R
MERIDEN        SUNNY     72  57  59 SE7       30.14R
NEW HAVEN      SUNNY     69  56  62 S5        30.15R
CHESTER        FAIR      70  55  60 CALM      30.16R
GROTON         PTSUNNY   68  60  75 CALM      30.15R
WILLIMANTIC    SUNNY     73  62  68 CALM      30.16R

 IN RI

CITY           SKY/WX    TMP DP  RH WIND       PRES   REMARKS
PROVIDENCE     MOSUNNY   70  61  73 NE5       30.17R
BLOCK ISLAND   SUNNY     65  59  81 SW9       30.18R
WESTERLY       SUNNY     72  55  55 CALM      30.17R

 IN MA

CITY           SKY/WX    TMP DP  RH WIND       PRES   REMARKS
BOSTON         CLOUDY    59  54  83 N8        30.20R
WORCESTER      CLOUDY    62  60  93 NE7       30.20R FOG
WESTFIELD      SUNNY     73  63  70 N3        30.15R
PROVINCETOWN   SUNNY     60  56  86 NW7       30.16R
NANTUCKET      SUNNY     64  58  80 SW15      30.17R
$$

ANZ330-335-338-340-345-350-353-355-291300-
COASTAL MARINE OBSERVATIONS


STATION/POSITION TIME  SKY/WX   TEMP    WIND        PRES    VSBY  WAVE
                                AIR SEA DIR/SP/G                  HT/PER
                 (UTC)          (F)     (DEG/KT/KT) (MB)    (MI)  (FT/S)
NY HARB ENTRANCE 1050            61 57  210/  8/ 10 1020.9          2/ 8
20S FIRE ISLAND  1050            62 59  210/  8/ 10 1021.1          3/ 7
GREAT SOUTH BAY  1115            66 69  230/ 12/ 14   N/A
23 SSW MONTAUK P 1150            61 57  230/ 12/ 14 1021.0          3/ 8
15 E BARNEGAT LI NOT AVBL
HUDSON CANYON    1050            62 58              1021.9          3/ 8
KINGS POINT      1100            70 58              1020.4
EXECUTION ROCKS  NOT AVBL
CENTRAL LI SOUND 1100            64     210/  4/  6   N/A           1
EASTERN LI SOUND 1100            60 53  150/  2/  2   N/A
ROBBINS REEF     1106            70     220/  2/  3 1020.3
$$


>>>>>>>>>>>>>>>>>>>>>>>>>>>> KEY <<<<<<<<<<<<<<<<<<<<<<<<<<<
>                                                          <
>     SKY/WX - SKY CONDITION/PRESENT WEATHER               <
>     TMP    - TEMPERATURE IN FAHRENHEIT                   <
>     DP     - DEWPOINT IN FAHRENHEIT                      <
>     RH     - RELATIVE HUMIDITY IN PERCENT                <
>     WIND   - DIRECTION AND SPEED IN MPH                  <
>     PRES   - MEAN SEA LEVEL PRESSURE IN INCHES OF HG     <
>     WCI    - WIND CHILL INDEX                            <
>     VSB    - VISIBILITY IN MILES                         <
>     HX     - HEAT INDEX                                  <
>     TC     - TEMPERATURE IN CELSIUS                      <
>     VRB    - VARIABLE WIND DIRECTION                     <
>                                                          <
>>>>>>>>>>>>>>>>>>>>>>>>>>>> KEY <<<<<<<<<<<<<<<<<<<<<<<<<<<





USA.gov is the U.S. government's official web portal to all federal, state and local government web resources and services.